Weather History for LIEA - April, 2013

Change the Weather History Date:

Thursday, April 4, 2013

  Actual Average Record
Temperature  
Mean Temperature 58 °F -  
Max Temperature 71 °F 65 °F 71 °F (2013)
Min Temperature 44 °F 47 °F 41 °F (2001)
Degree Days  
Heating Degree Days 8    
Growing Degree Days 8 (Base 50)    
Moisture  
Dew Point 50 °F    
Average Humidity 78    
Maximum Humidity 100    
Minimum Humidity 46    
Precipitation  
Precipitation 0.00 in 0.06 in - ()
Sea Level Pressure  
Sea Level Pressure 29.53 in    
Wind  
Wind Speed 7 mph ()    
Max Wind Speed 17 mph    
Max Gust Speed -    
Visibility 5.2 miles    
Events Rain    
Averages and records for this station are not official NWS values.
T = Trace of Precipitation, MM = Missing Value Source: Averaged Metar Reports

Daily Weather History Graph

Daily Weather History Graph

Search for Another Location

Airport or City:

Trip Planner

Search our weather history database for the weather conditions in past years. The results will help you decide how hot, cold, wet, or windy it might be!

Date:

Astronomy

Apr. 04, 2013 Rise Set
Actual Time 7:05 AM CEST 7:54 PM CEST
Civil Twilight 6:37 AM CEST 8:22 PM CEST
Nautical Twilight 6:05 AM CEST 8:55 PM CEST
Astronomical Twilight 5:31 AM CEST 9:29 PM CEST
Moon 3:22 AM CEST (4/4) 1:53 PM CEST (4/4)
Length of Visible Light 13h 44m
Length of Day
12h 49m
Last Quarter, 36% of the Moon is Illuminated
Apr 4
Last Quarter
Apr 10
New
Apr 18
First Quarter
Apr 25
Full
May 2
Last Quarter

Hourly Weather History & Observations

Time (CEST) Temp. Windchill Dew Point Humidity Pressure Visibility Wind Dir Wind Speed Gust Speed Precip Events Conditions
12:20 AM 44.6 °F - 42.8 °F 93% 29.71 in - North 2.3 mph - N/A   Clear
12:50 AM 44.6 °F 43.1 °F 44.6 °F 100% 29.74 in - North 3.5 mph - N/A   Clear
2:50 AM 46.4 °F 45.2 °F 44.6 °F 93% 29.71 in - North 3.5 mph - N/A   Clear
3:20 AM 46.4 °F 44.3 °F 44.6 °F 93% 29.68 in - NNE 4.6 mph - N/A   Clear
3:50 AM 48.2 °F - 44.6 °F 87% 29.68 in - North 4.6 mph - N/A   Clear
4:20 AM 48.2 °F - 44.6 °F 87% 29.65 in - North 6.9 mph - N/A   Clear
4:50 AM 48.2 °F - 44.6 °F 87% 29.65 in - North 5.8 mph - N/A   Clear
5:20 AM 50.0 °F - 44.6 °F 82% 29.59 in - North 8.1 mph - N/A   Clear
5:50 AM 50.0 °F - 44.6 °F 82% 29.59 in - North 6.9 mph - N/A   Clear
6:20 AM 50.0 °F - 44.6 °F 82% 29.59 in - North 5.8 mph - N/A   Clear
6:50 AM 50.0 °F - 42.8 °F 76% 29.56 in - North 6.9 mph - N/A   Clear
7:20 AM 50.0 °F - 42.8 °F 76% 29.56 in - North 6.9 mph - N/A   Clear
7:50 AM 51.8 °F - 42.8 °F 71% 29.56 in - North 9.2 mph - N/A   Clear
8:20 AM 51.8 °F - 44.6 °F 76% 29.56 in - NNE 9.2 mph - N/A   Clear
8:50 AM 55.4 °F - 44.6 °F 67% 29.56 in - NNE 8.1 mph - N/A   Clear
9:20 AM 57.2 °F - 46.4 °F 67% 29.56 in - NNE 9.2 mph - N/A   Clear
9:50 AM 59.0 °F - 46.4 °F 63% 29.53 in - NNE 10.4 mph - N/A   Clear
10:20 AM 59.0 °F - 46.4 °F 63% 29.53 in - NE 11.5 mph - N/A   Clear
10:50 AM 60.8 °F - 46.4 °F 59% 29.53 in - NE 11.5 mph - N/A   Clear
11:20 AM 62.6 °F - 51.8 °F 68% 29.50 in - NE 11.5 mph - N/A   Clear
11:50 AM 64.4 °F - 51.8 °F 64% 29.50 in - NE 10.4 mph - N/A   Clear
12:20 PM 68.0 °F - 50.0 °F 52% 29.47 in - NE 10.4 mph - N/A   Clear
12:50 PM 69.8 °F - 48.2 °F 46% 29.47 in - NNE 8.1 mph - N/A   Clear
1:20 PM 69.8 °F - 55.4 °F 60% 29.44 in - NNE 9.2 mph - N/A   Clear
1:50 PM 69.8 °F - 53.6 °F 56% 29.44 in - North 6.9 mph - N/A   Clear
2:20 PM 71.6 °F - 53.6 °F 53% 29.44 in - NW 4.6 mph - N/A   Clear
2:50 PM 68.0 °F - 50.0 °F 52% 29.44 in - WSW 10.4 mph - N/A   Clear
3:20 PM 66.2 °F - 51.8 °F 60% 29.44 in - SW 11.5 mph - N/A   Clear
3:50 PM 62.6 °F - 51.8 °F 68% 29.44 in - SW 12.7 mph - N/A   Clear
4:20 PM 62.6 °F - 55.4 °F 77% 29.44 in 6.2 mi SSW 13.8 mph - N/A   Scattered Clouds
5:20 PM 59.0 °F - 55.4 °F 88% 29.44 in 5.0 mi SSW 17.3 mph - N/A   Mostly Cloudy
5:50 PM 59.0 °F - 55.4 °F 88% 29.44 in 5.0 mi South 12.7 mph - N/A   Mostly Cloudy
6:20 PM 57.2 °F - 55.4 °F 94% 29.44 in 3.1 mi SSW 13.8 mph - N/A Rain Light Rain
6:50 PM 57.2 °F - 57.2 °F 100% 29.44 in 3.1 mi South 10.4 mph - N/A Rain Light Rain
7:50 PM 57.2 °F - 55.4 °F 94% 29.47 in 3.7 mi SSW 17.3 mph - N/A Rain Light Rain
8:20 PM 57.2 °F - 55.4 °F 94% 29.47 in 5.0 mi SSW 13.8 mph - N/A   Mostly Cloudy
8:50 PM 57.2 °F - 55.4 °F 94% 29.47 in 5.0 mi SSW 11.5 mph - N/A   Mostly Cloudy
9:20 PM 57.2 °F - 53.6 °F 88% 29.50 in 6.2 mi SW 13.8 mph - N/A   Scattered Clouds
9:50 PM 57.2 °F - 53.6 °F 88% 29.50 in 6.2 mi SW 12.7 mph - N/A   Scattered Clouds
10:20 PM 57.2 °F - 53.6 °F 88% 29.50 in 6.2 mi SW 12.7 mph - N/A   Scattered Clouds
10:50 PM 57.2 °F - 53.6 °F 88% 29.50 in 6.2 mi WSW 13.8 mph - N/A   Scattered Clouds
11:20 PM 57.2 °F - 53.6 °F 88% 29.53 in 6.2 mi West 11.5 mph - N/A   Scattered Clouds
11:50 PM 55.4 °F - 51.8 °F 88% 29.53 in 6.2 mi West 11.5 mph - N/A   Scattered Clouds